Location: Dreilärchen
(47.9312°N, 8.6113°E)
Time: 02:12:33
(UTC+00:00)

COSMOS 2428 - Pass Details

Date: 26 May 2022
Orbit: 846 x 854 km, 70.9° (Epoch: 26 June)

Event Time Altitude Azimuth Distance (km) Brightness Sun altitude
Exits shadow 01:12:19 10° 259° (W) 2,480 4.8 -16.7°
Reaches altitude 10° 01:12:21 10° 260° (W) 2,471 4.8 -16.7°
Maximum altitude 01:16:59 25° 315° (NW) 1,641 4.4 -16.4°
Drops below altitude 10° 01:21:39 10° 10° (N) 2,481 6.3 -16.0°
Sets 01:24:33 0° 23° (NNE) 3,420 7.7 -15.7°
